![]() |
EMODnet Physics ERDDAP
Easier access to scientific data |
log in|
Brought to you by EMODnet Physics |
| Dataset Title: | NDBC - Collection of dew point temperature (DEWT) TimeSeries - IN SITU MultiPointTimeSeriesObservation
|
| Institution: | NDBC (Dataset ID: TS_DEWT_NDBC) |
| Information: | Summary
| License
| FGDC
| ISO 19115
| Metadata
| Background
| Subset
| Data Access Form
| Make a graph
|
| Name | Last modified | Size | Description | |
|---|---|---|---|---|
| Parent Directory | - | - | ||
| ULRA2_TS_DEWT_012017.nc | 05-Oct-2024 16:17 | 451375 | ||
| ULRA2_TS_DEWT_012018.nc | 05-Oct-2024 17:01 | 451306 | ||
| ULRA2_TS_DEWT_012019.nc | 05-Oct-2024 17:38 | 447746 | ||
| ULRA2_TS_DEWT_012020.nc | 05-Oct-2024 18:11 | 447248 | ||
| ULRA2_TS_DEWT_012021.nc | 05-Oct-2024 18:44 | 447823 | ||
| ULRA2_TS_DEWT_012022.nc | 05-Oct-2024 19:25 | 448758 | ||
| ULRA2_TS_DEWT_022017.nc | 05-Oct-2024 16:21 | 447588 | ||
| ULRA2_TS_DEWT_022018.nc | 05-Oct-2024 17:05 | 448346 | ||
| ULRA2_TS_DEWT_022019.nc | 05-Oct-2024 17:40 | 447826 | ||
| ULRA2_TS_DEWT_022020.nc | 05-Oct-2024 18:14 | 447438 | ||
| ULRA2_TS_DEWT_022021.nc | 05-Oct-2024 18:48 | 447173 | ||
| ULRA2_TS_DEWT_022022.nc | 05-Oct-2024 19:27 | 449000 | ||
| ULRA2_TS_DEWT_022023.nc | 05-Oct-2024 20:04 | 448257 | ||
| ULRA2_TS_DEWT_032017.nc | 05-Oct-2024 16:26 | 448413 | ||
| ULRA2_TS_DEWT_032018.nc | 05-Oct-2024 17:08 | 448608 | ||
| ULRA2_TS_DEWT_032020.nc | 05-Oct-2024 18:16 | 450652 | ||
| ULRA2_TS_DEWT_032021.nc | 05-Oct-2024 18:51 | 450391 | ||
| ULRA2_TS_DEWT_032022.nc | 05-Oct-2024 19:30 | 449646 | ||
| ULRA2_TS_DEWT_032023.nc | 05-Oct-2024 20:07 | 450895 | ||
| ULRA2_TS_DEWT_042017.nc | 05-Oct-2024 16:31 | 450607 | ||
| ULRA2_TS_DEWT_042018.nc | 05-Oct-2024 17:12 | 419869 | ||
| ULRA2_TS_DEWT_042019.nc | 05-Oct-2024 17:45 | 450164 | ||
| ULRA2_TS_DEWT_042020.nc | 05-Oct-2024 18:18 | 450779 | ||
| ULRA2_TS_DEWT_042021.nc | 05-Oct-2024 18:54 | 449637 | ||
| ULRA2_TS_DEWT_042022.nc | 05-Oct-2024 19:34 | 451656 | ||
| ULRA2_TS_DEWT_042023.nc | 05-Oct-2024 20:10 | 450848 | ||
| ULRA2_TS_DEWT_052017.nc | 05-Oct-2024 16:34 | 450557 | ||
| ULRA2_TS_DEWT_052018.nc | 05-Oct-2024 17:15 | 450993 | ||
| ULRA2_TS_DEWT_052019.nc | 05-Oct-2024 17:49 | 450858 | ||
| ULRA2_TS_DEWT_052020.nc | 05-Oct-2024 18:21 | 450817 | ||
| ULRA2_TS_DEWT_052021.nc | 05-Oct-2024 18:59 | 450404 | ||
| ULRA2_TS_DEWT_052022.nc | 05-Oct-2024 19:37 | 449330 | ||
| ULRA2_TS_DEWT_062017.nc | 05-Oct-2024 16:36 | 448508 | ||
| ULRA2_TS_DEWT_062018.nc | 05-Oct-2024 17:19 | 449630 | ||
| ULRA2_TS_DEWT_062019.nc | 05-Oct-2024 17:52 | 449517 | ||
| ULRA2_TS_DEWT_062020.nc | 05-Oct-2024 18:23 | 449428 | ||
| ULRA2_TS_DEWT_062021.nc | 05-Oct-2024 19:03 | 449991 | ||
| ULRA2_TS_DEWT_062022.nc | 05-Oct-2024 19:40 | 450725 | ||
| ULRA2_TS_DEWT_062023.nc | 05-Oct-2024 20:15 | 449566 | ||
| ULRA2_TS_DEWT_072017.nc | 05-Oct-2024 16:40 | 450278 | ||
| ULRA2_TS_DEWT_072018.nc | 05-Oct-2024 17:21 | 449153 | ||
| ULRA2_TS_DEWT_072019.nc | 05-Oct-2024 17:55 | 449547 | ||
| ULRA2_TS_DEWT_072020.nc | 05-Oct-2024 18:26 | 448969 | ||
| ULRA2_TS_DEWT_072022.nc | 05-Oct-2024 19:44 | 450319 | ||
| ULRA2_TS_DEWT_072023.nc | 05-Oct-2024 20:18 | 449317 | ||
| ULRA2_TS_DEWT_082016.nc | 05-Oct-2024 15:56 | 451102 | ||
| ULRA2_TS_DEWT_082017.nc | 05-Oct-2024 16:44 | 451377 | ||
| ULRA2_TS_DEWT_082018.nc | 05-Oct-2024 17:24 | 450561 | ||
| ULRA2_TS_DEWT_082019.nc | 05-Oct-2024 17:58 | 451481 | ||
| ULRA2_TS_DEWT_082020.nc | 05-Oct-2024 18:29 | 451126 | ||
| ULRA2_TS_DEWT_082021.nc | 05-Oct-2024 19:09 | 449553 | ||
| ULRA2_TS_DEWT_082022.nc | 05-Oct-2024 19:46 | 451592 | ||
| ULRA2_TS_DEWT_082023.nc | 05-Oct-2024 20:21 | 450519 | ||
| ULRA2_TS_DEWT_092016.nc | 05-Oct-2024 16:00 | 450600 | ||
| ULRA2_TS_DEWT_092017.nc | 05-Oct-2024 16:47 | 450610 | ||
| ULRA2_TS_DEWT_092018.nc | 05-Oct-2024 17:27 | 451344 | ||
| ULRA2_TS_DEWT_092019.nc | 05-Oct-2024 18:00 | 450356 | ||
| ULRA2_TS_DEWT_092020.nc | 05-Oct-2024 18:32 | 450929 | ||
| ULRA2_TS_DEWT_092021.nc | 05-Oct-2024 19:11 | 444071 | ||
| ULRA2_TS_DEWT_092022.nc | 05-Oct-2024 19:49 | 450459 | ||
| ULRA2_TS_DEWT_102016.nc | 05-Oct-2024 16:04 | 449223 | ||
| ULRA2_TS_DEWT_102017.nc | 05-Oct-2024 16:50 | 443164 | ||
| ULRA2_TS_DEWT_102018.nc | 05-Oct-2024 17:30 | 445886 | ||
| ULRA2_TS_DEWT_102019.nc | 05-Oct-2024 18:02 | 449390 | ||
| ULRA2_TS_DEWT_102020.nc | 05-Oct-2024 18:35 | 449451 | ||
| ULRA2_TS_DEWT_102021.nc | 05-Oct-2024 19:14 | 449152 | ||
| ULRA2_TS_DEWT_102022.nc | 05-Oct-2024 19:52 | 449063 | ||
| ULRA2_TS_DEWT_102023.nc | 05-Oct-2024 20:29 | 448995 | ||
| ULRA2_TS_DEWT_112016.nc | 05-Oct-2024 16:09 | 449031 | ||
| ULRA2_TS_DEWT_112017.nc | 05-Oct-2024 16:54 | 449243 | ||
| ULRA2_TS_DEWT_112018.nc | 05-Oct-2024 17:32 | 448720 | ||
| ULRA2_TS_DEWT_112019.nc | 05-Oct-2024 18:05 | 450031 | ||
| ULRA2_TS_DEWT_112020.nc | 05-Oct-2024 18:37 | 448519 | ||
| ULRA2_TS_DEWT_112021.nc | 05-Oct-2024 19:17 | 442766 | ||
| ULRA2_TS_DEWT_112022.nc | 05-Oct-2024 19:55 | 449946 | ||
| ULRA2_TS_DEWT_112023.nc | 05-Oct-2024 20:32 | 449547 | ||
| ULRA2_TS_DEWT_122016.nc | 05-Oct-2024 16:13 | 450781 | ||
| ULRA2_TS_DEWT_122017.nc | 05-Oct-2024 16:57 | 438611 | ||
| ULRA2_TS_DEWT_122018.nc | 05-Oct-2024 17:35 | 450550 | ||
| ULRA2_TS_DEWT_122020.nc | 05-Oct-2024 18:40 | 450724 | ||
| ULRA2_TS_DEWT_122021.nc | 05-Oct-2024 19:21 | 450060 | ||
| ULRA2_TS_DEWT_122022.nc | 05-Oct-2024 19:58 | 450319 | ||
| ULRA2_TS_DEWT_122023.nc | 05-Oct-2024 20:34 | 450118 | ||